Theta_e
315 319 321 321 319 319 321 322 322 321 322 324 323 323 322 325 327 328 327 325 325 326 324 324 323 324 320 320 321 320 322 321 321 320 321 325 330 330 333 336 335 334 334
314 317 319 318 317 317 319 323 321 322 324 325 326 326 326 327 326 326 328 328 327 326 325 325 323 323 322 323 321 320 318 319 322 319 319 318 323 327 329 331 331 331 332
313 316 318 316 317 317 319 321 322 324 326 326 326 325 325 325 324 324 326 325 329 327 326 325 323 323 323 322 321 320 319 318 322 322 321 317 315 321 327 327 329 329 329
315 316 318 316 316 318 319 322 324 325 328 326 324 322 320 319 323 325 326 325 329 327 327 325 324 323 322 322 323 323 320 320 319 321 326 322 322 318 318 325 326 328 327
314 315 317 318 319 318 320 321 323 325 326 326 325 323 322 323 323 321 321 321 323 327 328 326 324 323 323 323 325 322 321 322 323 320 320 321 321 323 321 317 321 326 327
314 317 319 319 318 318 319 323 323 324 325 325 325 323 322 323 321 319 320 321 325 326 327 327 325 323 323 324 325 323 322 318 322 322 322 321 320 321 320 319 320 321 323
315 316 317 316 315 316 319 321 321 320 322 324 324 324 323 322 321 319 320 320 322 323 324 325 324 325 323 326 325 323 324 323 323 322 322 322 324 325 323 321 319 319 323
315 315 316 315 314 316 319 320 320 319 321 323 323 324 324 323 321 321 322 322 322 324 326 326 326 326 327 327 326 324 324 325 326 324 322 324 323 325 324 322 320 317 318
314 315 316 314 314 315 317 318 320 318 321 323 322 323 324 324 324 323 324 323 325 328 326 328 326 326 326 326 326 326 327 327 325 325 324 325 323 323 324 325 324 320 315
313 315 315 314 314 315 316 319 320 318 320 322 322 322 325 326 326 325 324 324 325 323 325 328 327 327 327 328 328 327 325 326 326 325 324 324 324 323 324 325 325 323 320
313 314 314 315 315 316 317 319 318 318 317 319 319 321 322 325 326 324 326 323 326 326 328 328 326 327 328 328 327 326 324 323 323 323 323 323 324 324 324 325 325 323 323
312 314 314 313 314 315 316 318 318 318 317 319 318 320 323 324 325 325 325 326 324 326 327 328 328 328 326 325 325 325 325 323 320 320 323 322 323 323 324 325 323 322 322
312 312 314 312 313 314 316 318 319 316 317 319 316 320 322 322 323 324 323 326 324 324 326 327 327 328 328 327 327 327 325 323 323 322 322 322 322 322 323 323 322 322 325
313 313 314 310 313 313 317 318 318 315 315 318 315 319 320 320 321 323 325 326 326 325 325 326 328 328 329 329 328 327 325 324 323 323 323 322 323 322 322 323 320 320 320
312 313 313 310 311 311 315 318 318 314 315 317 315 317 319 322 322 322 324 325 327 325 326 325 327 328 329 330 328 328 326 324 323 323 324 324 323 322 322 322 319 320 319
314 314 315 311 312 313 314 317 317 314 314 317 316 318 318 321 322 319 319 322 323 322 322 321 319 320 324 309 315 324 325 325 324 323 323 322 321 319 317 316 316 320 317
314 315 315 313 313 314 314 316 316 313 313 317 318 318 318 321 321 320 319 319 320 318 318 318 317 312 311 308 311 316 328 326 324 323 322 324 325 320 321 309 308 310 311
315 316 316 313 313 315 314 316 315 313 313 315 317 317 317 319 320 319 319 319 319 317 317 317 315 311 307 303 307 312 322 320 321 321 321 321 318 317 315 315 316 316 315
317 317 318 315 314 316 316 317 314 312 312 313 314 317 316 316 317 319 317 319 319 318 316 315 314 311 307 304 308 319 320 319 319 318 316 318 314 305 308 316 314 313 308
318 318 319 317 316 316 317 316 315 312 311 313 314 316 316 316 315 319 319 320 320 320 319 316 313 311 308 300 302 315 320 314 312 308 311 309 308 300 307 314 314 311 309
319 321 320 316 316 317 318 316 315 313 313 314 314 313 316 316 316 320 321 321 321 319 317 318 314 313 309 305 299 302 316 314 311 308 305 305 297 300 302 308 313 310 307
320 321 319 316 317 318 318 316 315 316 315 314 315 313 314 319 323 321 321 321 320 318 317 316 315 316 312 305 297 297 301 301 310 308 305 298 294 295 296 297 295 298 303
320 321 320 317 318 319 318 316 316 318 317 314 313 314 315 316 322 321 320 318 318 318 314 316 313 315 315 308 297 295 300 301 310 306 303 295 294 294 294 294 297 299 303
320 321 321 318 317 318 318 319 320 320 317 314 314 315 313 315 321 322 321 319 316 315 313 313 311 311 313 308 299 298 301 300 298 298 296 295 294 295 295 293 293 298 303
321 322 322 320 318 318 319 320 322 320 316 315 316 314 313 317 318 320 320 318 317 315 314 311 311 309 312 312 302 301 303 305 303 302 300 299 296 299 302 304 301 303 306
322 322 322 322 321 320 320 321 321 320 317 317 317 315 313 316 317 317 315 300 302 303 303 303 309 312 308 301 298 298 299 300 300 308 306 305 305 304 305 306 308 309 308
Wind_Speed
10 15 13 12 10 9 9 6 4 2 1 1 2 1 1 2 1 2 3 6 5 6 3 3 4 3 5 4 4 3 4 4 4 5 4 4 4 6 7 8 9 10 9
13 13 13 8 9 9 9 6 4 3 1 1 1 1 2 3 2 2 2 2 5 6 4 4 4 4 4 5 3 4 2 2 2 4 4 3 3 5 7 7 9 11 9
18 14 14 11 9 9 8 7 5 4 2 2 1 3 3 3 3 1 1 3 2 3 3 3 4 4 4 7 5 5 5 3 1 5 5 4 3 4 3 8 8 11 8
15 14 13 10 9 8 8 7 6 4 3 3 3 3 1 2 2 1 2 3 4 2 3 4 4 5 3 5 5 5 4 5 4 3 3 3 6 3 5 5 7 8 8
19 16 13 11 9 8 8 7 7 5 5 3 3 3 3 2 2 2 3 2 2 2 3 3 5 5 4 4 7 6 6 4 3 2 3 5 5 5 5 8 7 7 6
13 13 12 11 8 8 8 7 7 4 2 4 6 6 5 5 4 4 3 2 2 2 3 4 4 4 4 5 5 6 7 5 4 3 5 6 5 6 5 6 6 8 6
16 15 14 10 9 9 8 7 8 5 2 6 6 6 4 5 4 3 3 4 2 1 3 3 3 3 4 4 5 6 6 6 4 6 4 5 9 7 7 7 5 3 6
14 13 14 10 10 9 9 8 8 6 4 6 5 5 4 2 2 1 2 2 2 2 3 4 5 4 6 5 5 4 4 6 5 8 6 8 5 6 10 8 10 7 1
13 14 13 11 9 9 9 8 8 6 7 7 4 5 4 3 3 1 3 2 2 2 4 5 6 5 6 5 6 5 7 8 7 8 8 9 6 6 6 6 7 5 4
12 12 12 10 8 9 7 7 8 8 7 7 5 4 5 3 3 3 4 4 3 3 4 6 6 6 6 10 9 9 9 10 7 6 10 9 7 8 7 7 8 6 4
12 12 10 9 10 8 8 7 7 8 7 6 5 5 4 5 6 5 4 5 4 3 6 5 6 7 9 11 10 11 10 12 9 7 10 11 10 7 7 7 8 6 3
11 11 11 10 11 9 8 8 6 8 7 6 5 5 6 6 5 6 4 4 6 6 5 6 7 7 9 9 11 11 9 11 12 12 10 9 9 9 9 7 8 5 4
11 10 12 11 11 8 8 8 7 7 7 7 7 6 6 5 5 6 5 4 5 6 6 5 7 8 9 10 9 10 10 9 9 9 10 10 11 10 8 7 6 3 2
13 10 12 9 12 9 10 8 7 8 7 8 7 7 6 4 3 5 6 5 5 5 5 6 5 7 7 8 9 10 9 10 8 7 8 9 9 10 8 7 6 5 4
13 13 13 10 11 9 9 9 7 8 8 9 7 7 6 5 3 4 6 6 6 5 6 5 6 5 6 6 9 10 9 9 9 9 7 7 9 9 7 6 5 3 5
16 15 14 14 13 11 9 10 8 8 9 10 8 7 6 3 5 5 6 6 5 6 7 7 7 7 4 9 13 9 8 8 8 9 7 7 12 9 9 7 3 8 8
17 17 16 15 12 12 10 9 8 8 9 10 9 7 6 6 6 5 5 6 6 7 7 7 7 7 6 10 13 11 7 6 6 8 9 8 6 7 4 6 7 9 8
19 17 14 14 12 12 9 9 11 10 9 11 10 9 7 7 6 5 6 6 6 7 6 6 7 7 5 11 13 12 7 7 6 7 8 7 6 6 7 7 6 7 7
18 18 16 15 11 15 11 12 12 11 9 9 10 11 8 7 7 7 7 4 6 5 4 5 6 7 5 9 10 9 7 6 6 6 7 8 7 7 9 7 7 6 5
16 16 16 15 17 15 13 13 12 11 10 8 12 12 10 9 8 8 7 4 4 5 5 6 6 7 5 8 10 7 5 6 5 5 5 10 8 8 7 7 7 6 3
18 18 18 18 16 16 15 14 12 13 11 9 12 11 10 11 9 9 5 5 4 5 6 7 6 6 6 5 7 7 4 6 5 5 4 4 11 9 10 10 7 5 5
16 20 17 15 14 16 16 14 12 11 10 9 11 12 10 11 9 11 6 7 6 5 5 6 5 4 5 8 7 9 8 3 5 5 4 5 9 11 11 8 9 7 6
18 18 17 16 14 16 16 15 12 12 11 8 10 13 12 10 11 11 8 6 6 5 5 5 5 4 4 4 9 10 8 4 5 5 8 12 10 12 9 9 9 7 4
17 16 17 17 15 13 15 15 13 12 11 8 10 13 12 10 11 9 9 8 6 5 5 5 5 5 5 5 5 4 5 5 5 9 8 7 8 7 8 5 2 2 3
14 18 18 17 17 14 13 13 14 12 11 8 11 13 11 11 10 10 9 7 6 7 5 5 6 6 7 6 10 10 6 5 6 8 4 3 2 3 4 3 5 4 4
15 17 18 17 16 16 14 14 14 13 10 9 11 11 10 8 10 8 5 6 1 14 12 11 8 5 12 16 17 17 14 13 15 4 4 4 5 5 5 4 4 3 5
Wind_Direction
137 133 132 131 125 122 126 152 168 213 119 347 315 317 254 273 235 240 246 218 225 241 254 207 215 184 156 166 171 163 186 228 157 112 80 93 80 101 109 129 137 127 135
131 131 131 125 131 135 142 156 173 153 67 158 257 212 267 268 225 238 296 280 235 225 236 202 203 189 139 142 175 179 116 134 146 123 121 113 78 96 111 117 130 128 122
147 148 143 141 140 142 145 160 164 140 131 33 23 340 352 334 353 336 327 299 285 181 190 196 172 182 150 161 191 159 126 119 353 146 121 138 164 128 125 126 124 127 126
149 148 147 144 143 145 148 144 145 165 135 83 65 79 63 305 279 283 12 357 10 201 171 160 176 177 157 156 151 140 123 125 130 68 76 119 114 124 132 113 110 113 127
152 155 144 140 146 139 146 146 144 154 162 121 103 75 23 304 335 16 61 6 344 334 173 151 146 162 154 143 136 132 125 119 130 138 124 77 70 69 114 115 127 116 114
135 130 139 138 138 137 139 142 151 178 150 125 78 75 45 29 39 22 25 1 351 310 169 155 133 142 114 155 163 136 135 132 156 139 143 138 123 139 141 127 123 127 134
139 140 144 142 135 145 150 154 153 165 168 111 90 104 82 66 61 6 360 9 356 80 117 131 136 140 145 164 159 141 147 159 157 147 135 100 134 143 128 133 117 120 127
142 143 142 141 145 150 155 166 160 160 143 116 113 126 98 148 115 355 357 30 39 118 150 167 166 146 147 164 128 116 123 118 115 109 102 116 125 141 142 140 139 121 131
143 144 145 143 148 149 167 164 157 160 139 128 129 144 145 153 151 125 22 54 74 62 81 134 141 154 145 116 101 103 99 87 89 97 93 109 101 96 95 121 133 120 128
139 144 144 144 152 153 164 147 144 150 156 154 156 149 174 153 108 83 72 65 84 59 56 105 111 122 118 107 105 98 99 106 104 108 109 106 107 113 108 104 89 76 87
144 146 144 145 149 148 148 144 144 139 138 121 132 111 101 98 90 85 76 69 80 86 53 80 111 111 111 114 106 112 107 116 109 101 118 120 119 119 104 96 103 90 86
142 147 142 141 147 152 152 154 158 145 152 148 127 117 102 95 96 92 93 67 63 64 84 73 77 107 106 115 113 114 119 123 124 129 123 116 124 117 117 114 115 110 79
146 148 145 148 156 154 156 164 164 162 158 132 130 110 108 100 121 109 123 104 81 80 63 68 89 103 109 110 110 117 118 118 118 125 127 129 129 125 127 114 119 119 106
156 154 152 153 159 159 160 167 178 162 150 136 130 121 129 140 148 128 138 123 112 105 88 90 89 111 113 119 120 118 120 120 120 122 129 130 130 133 135 136 148 163 167
155 158 159 160 158 163 159 166 172 154 142 136 134 138 148 178 149 121 129 124 126 114 93 76 82 80 102 116 129 126 124 125 129 130 138 129 140 140 152 156 181 190 153
164 163 162 162 160 167 163 164 163 154 135 138 144 141 148 141 125 123 111 127 115 88 94 78 84 87 85 120 109 113 120 124 135 132 133 134 147 148 179 202 236 192 148
167 165 164 167 163 165 159 162 153 145 132 142 149 146 162 139 129 126 109 106 120 100 91 91 83 80 91 128 124 128 132 132 133 133 135 147 149 152 189 143 154 111 148
168 166 163 163 160 160 153 148 146 146 142 149 154 154 157 147 145 128 112 99 112 118 115 106 107 98 75 106 130 122 130 127 130 137 143 138 155 181 159 171 131 99 79
170 168 161 158 152 160 155 145 151 149 152 151 158 162 155 156 152 139 137 120 116 117 115 120 109 104 80 84 109 111 113 110 126 129 146 140 149 163 171 138 129 112 108
159 157 159 158 154 161 151 149 156 157 164 164 165 166 155 160 154 150 148 141 132 135 134 130 132 127 116 74 78 102 112 102 102 79 97 135 135 107 102 138 132 121 171
155 152 155 161 163 159 152 160 157 170 172 167 160 165 153 160 154 150 143 143 154 137 147 145 157 151 157 119 91 75 119 140 140 136 134 131 134 116 101 133 138 157 152
146 155 155 159 162 160 159 162 164 170 168 166 155 162 156 164 153 151 150 152 155 168 159 152 155 171 175 150 138 106 105 156 140 163 156 141 137 116 105 85 112 120 98
155 158 156 156 163 166 166 165 175 162 170 167 154 158 160 150 152 155 156 154 161 166 174 161 157 172 177 155 148 134 120 152 151 162 165 151 140 113 91 120 123 113 114
152 157 151 161 167 170 170 170 164 163 167 168 155 156 157 148 157 162 166 168 170 173 179 167 174 172 172 174 155 144 112 101 89 107 124 140 136 127 128 108 97 135 147
150 157 160 165 171 166 167 164 169 166 168 156 157 161 161 157 160 167 172 172 189 175 177 186 176 165 184 197 171 164 170 162 134 102 89 104 112 145 157 170 174 168 140
153 158 164 164 169 171 168 170 175 172 164 158 160 166 162 160 166 161 156 41 185 191 195 201 180 199 182 167 173 171 167 172 151 116 146 173 182 186 183 170 166 150 126